Location: BGSU Observatory
(41.3799°N, 83.6397°W)
Time: 11:59:05
(UTC-05:00)

Amateur Radio Satellites - All Passes

Search period start: 30 January 2015 11:29
Search period end: 31 January 2015 11:29
Location: BGSU Observatory, 41.3799°N, 83.6397°W

Satellite Date Start Highest point End Downlink Frequencies (MHz)
Time Altitude Azimuth
POPSAT HIP 1 30 Jan 11:31:01 11:34:48 29° 265° (W) 11:38:33 437.405
DUCHIFAT 1 30 Jan 11:33:04 11:36:46 28° 265° (W) 11:40:28 145.980
DOVE 4 30 Jan 11:34:32 11:36:30 12° 300° (WNW) 11:38:10 437.250
PHONESAT 2.4 30 Jan 11:36:25 11:40:02 79° 181° (S) 11:43:41 2401.200-2431.200
BEESAT 2 30 Jan 11:36:46 11:40:57 72° 240° (WSW) 11:45:03 435.950
50 SAT 30 Jan 11:36:58 11:41:01 67° 285° (WNW) 11:44:59 437.505
AIST 2 30 Jan 11:38:29 11:42:41 50° 53° (NE) 11:46:48 435.215
PCSat 30 Jan 11:43:18 11:45:09 12° 35° (NE) 11:47:13 145.827
HO-68 30 Jan 11:43:26 11:47:48 17° 305° (NW) 11:51:50 435.675
VELOX 1 30 Jan 11:43:47 11:48:14 60° 286° (WNW) 11:52:38 145.980
CUBEBUG 1 30 Jan 11:48:33 11:53:00 65° 101° (E) 11:57:25 437.445
Oscar 19 30 Jan 11:48:38 11:51:17 15° 62° (ENE) 11:54:10 437.125/150
BEESAT 3 30 Jan 11:49:53 11:53:51 44° 243° (WSW) 11:57:46 437.485
UKube-1 30 Jan 12:01:28 12:04:17 17° 295° (WNW) 12:06:57 .
TISAT 1 30 Jan 12:03:18 12:06:34 21° 93° (E) 12:09:55 437.305
SO-50 30 Jan 12:05:32 12:09:06 21° 319° (NW) 12:12:41 436.795
VERMONT LUNAR 30 Jan 12:08:57 12:12:25 61° 192° (SSW) 12:15:53 437.305
NANOSAT C BR1 30 Jan 12:10:27 12:12:05 12° 272° (W) 12:13:29 145.865
HUMSAT D 30 Jan 12:11:58 12:15:18 22° 292° (WNW) 12:18:31 437.325/437.525
GONETS M04 30 Jan 12:17:10 12:25:33 50° 75° (ENE) 12:33:57
ZACube-1 30 Jan 12:19:35 12:21:27 12° 297° (WNW) 12:23:05 437.345
RS-15 30 Jan 12:40:38 12:51:03 41° 39° (NE) 13:02:00 29.354- 29.394
AISAT 30 Jan 12:54:42 12:56:41 12° 297° (WNW) 12:58:28 437.250
ESTCUBE 1 30 Jan 13:00:00 13:03:33 22° 293° (WNW) 13:07:01 437.505/2401.250
SWISSCUBE 30 Jan 13:01:01 13:03:47 16° 90° (E) 13:06:46 437.505
SPROUT 30 Jan 13:05:19 13:09:41 74° 284° (WNW) 13:14:00 437.525
AIST 1 30 Jan 13:09:11 13:11:01 12° 293° (WNW) 13:12:40
Gurwin Techsat 1B 30 Jan 13:10:07 13:13:53 21° 64° (ENE) 13:17:49 435.225
PHONESAT 2.4 30 Jan 13:14:59 13:18:29 47° 197° (SSW) 13:22:00 2401.200-2431.200
BEESAT 30 Jan 13:16:01 13:19:31 21° 92° (E) 13:23:09 436.000
AIST 2 30 Jan 13:18:13 13:20:57 16° 249° (WSW) 13:23:29 435.215
ITUPSAT 1 30 Jan 13:20:32 13:24:14 22° 93° (E) 13:28:02 437.325
PCSat 30 Jan 13:24:30 13:29:52 58° 56° (ENE) 13:35:13 145.827
Oscar 19 30 Jan 13:24:53 13:30:06 77° 258° (WSW) 13:35:19 437.125/150
CUBEBUG 1 30 Jan 13:26:44 13:28:55 13° 296° (WNW) 13:30:55 437.445
TISAT 1 30 Jan 13:38:36 13:42:30 33° 289° (WNW) 13:46:19 437.305
ITAMSAT 1 30 Jan 13:43:50 13:48:53 59° 73° (ENE) 13:54:01 435.822/435.867
VERMONT LUNAR 30 Jan 13:47:27 13:50:11 21° 207° (SSW) 13:52:54 437.305
HORYU 2 30 Jan 14:06:10 14:09:16 19° 66° (ENE) 14:12:31 437.375
DANDE 30 Jan 14:09:28 14:12:52 15° 54° (NE) 14:16:08 436.750
GONETS M04 30 Jan 14:14:29 14:22:10 35° 274° (W) 14:29:40
AO-7 30 Jan 14:25:29 14:32:26 32° 58° (ENE) 14:39:36 29.400- 29.500
CUSAT 1 30 Jan 14:31:03 14:35:49 24° 62° (ENE) 14:39:47 437.405
SWISSCUBE 30 Jan 14:37:23 14:42:05 55° 287° (WNW) 14:46:45 437.505
STARS 30 Jan 14:44:06 14:47:29 21° 93° (E) 14:50:56 437.465
Gurwin Techsat 1B 30 Jan 14:48:20 14:53:31 54° 260° (W) 14:58:44 435.225
KKS-1 30 Jan 14:52:46 14:57:00 40° 98° (E) 15:01:14 437.445
RS-15 30 Jan 14:53:03 15:04:22 70° 243° (WSW) 15:16:07 29.354- 29.394
BEESAT 30 Jan 14:53:05 14:57:36 42° 289° (WNW) 15:02:04 436.000
JAS-2 30 Jan 14:54:08 14:55:50 12° 60° (ENE) 14:57:49 435.910
PHONESAT 2.4 30 Jan 14:54:32 14:56:35 14° 212° (SSW) 14:58:34 2401.200-2431.200
ITUPSAT 1 30 Jan 14:57:51 15:02:18 39° 290° (WNW) 15:06:43 437.325
PCSat 30 Jan 15:08:58 15:12:54 20° 253° (WSW) 15:16:38 145.827
ITAMSAT 1 30 Jan 15:25:28 15:28:53 17° 270° (W) 15:32:05 435.822/435.867
AUBIESAT-1 30 Jan 15:25:35 15:27:26 14° 98° (E) 15:29:27 437.475
O/OREOS (USA 219) 30 Jan 15:41:01 15:44:40 25° 103° (ESE) 15:48:26 437.305
HORYU 2 30 Jan 15:41:23 15:45:41 43° 261° (W) 15:49:59 437.375
DANDE 30 Jan 15:51:11 15:57:50 83° 262° (W) 16:02:39 436.750
CUSAT 1 30 Jan 16:13:39 16:19:17 41° 270° (W) 16:23:31 437.405
AO-7 30 Jan 16:16:31 16:24:48 63° 257° (WSW) 16:33:06 29.400- 29.500
STARS 30 Jan 16:20:01 16:24:06 35° 290° (WNW) 16:28:06 437.465
CUTE-I 30 Jan 16:21:26 16:22:31 11° 58° (ENE) 16:23:55 437.470
M-CUBED/EXP-1 PRIME 30 Jan 16:27:11 16:30:30 71° 289° (WNW) 16:33:56 437.505
KKS-1 30 Jan 16:30:06 16:33:25 20° 294° (WNW) 16:36:37 437.445
JAS-2 30 Jan 16:34:55 16:40:25 87° 252° (WSW) 16:45:39 435.910
MOZHAYETS 4 30 Jan 16:41:44 16:45:27 25° 93° (E) 16:49:14
AUBIESAT-1 30 Jan 16:59:34 17:02:31 29° 293° (WNW) 17:05:32 437.475
RS-15 30 Jan 17:09:06 17:15:08 15° 261° (W) 17:20:14 29.354- 29.394
SO-50 30 Jan 17:16:39 17:18:08 11° 32° (NNE) 17:19:47 436.795
O/OREOS (USA 219) 30 Jan 17:19:58 17:24:00 31° 301° (WNW) 17:28:02 437.305
Cubesat XI-IV 30 Jan 17:37:08 17:42:16 52° 71° (ENE) 17:47:28 437.490
CUTE-I 30 Jan 17:56:30 18:01:48 77° 74° (ENE) 18:07:10 437.470
PRISM 30 Jan 18:05:13 18:07:57 17° 92° (E) 18:10:49 437.425
AO-7 30 Jan 18:18:14 18:19:32 10° 278° (W) 18:19:59 29.400- 29.500
MOZHAYETS 4 30 Jan 18:18:40 18:22:45 32° 290° (WNW) 18:26:46
CUBESAT XI-V 30 Jan 18:37:57 18:42:08 32° 95° (E) 18:46:21 437.345
HO-68 30 Jan 18:38:30 18:42:13 16° 54° (NE) 18:46:16 435.675
SO-50 30 Jan 18:55:01 18:59:51 54° 53° (NE) 19:04:41 436.795
YUBILEINY 30 Jan 19:15:39 19:23:35 43° 88° (E) 19:31:41 435.215
Cubesat XI-IV 30 Jan 19:18:50 19:22:45 20° 269° (W) 19:26:31 437.490
GOMX 1 30 Jan 19:19:08 19:22:05 16° 62° (ENE) 19:25:19 467.674
STRAND 1 30 Jan 19:19:57 19:25:01 57° 100° (E) 19:30:06 437.568
DOVE 4 30 Jan 19:25:07 19:27:16 13° 61° (ENE) 19:29:41 437.250
BRITE-PL 30 Jan 19:29:57 19:34:11 27° 66° (ENE) 19:38:46 437.365/2234.400
SEEDS 30 Jan 19:31:17 19:33:13 13° 65° (ENE) 19:35:20 437.485
PRISM 30 Jan 19:39:48 19:43:41 38° 289° (WNW) 19:47:32 437.425
CUTE-I 30 Jan 19:40:01 19:42:37 13° 273° (W) 19:44:53 437.470
COMPASS 1 30 Jan 19:54:27 19:57:25 19° 68° (ENE) 20:00:30 437.405
CANX-2 30 Jan 20:12:10 20:16:16 46° 73° (ENE) 20:20:24 2200.000
CUBESAT XI-V 30 Jan 20:15:32 20:19:30 27° 292° (WNW) 20:23:23 437.345
AAUSAT CUBESAT 2 30 Jan 20:18:46 20:22:26 30° 70° (ENE) 20:26:09 437.432
HO-68 30 Jan 20:21:49 20:28:56 76° 72° (ENE) 20:36:06 435.675
CINEMA 3 30 Jan 20:35:12 20:39:34 33° 69° (ENE) 20:44:05 145.822/145.860
CUTE 1.7 + AOD 2 30 Jan 20:35:53 20:40:10 78° 76° (ENE) 20:44:28 437.475
SO-50 30 Jan 20:36:29 20:40:05 20° 249° (WSW) 20:43:32 436.795
UWE-3 30 Jan 20:38:22 20:41:22 18° 65° (ENE) 20:44:32 435.000/436.395/437.385
Oscar 11 30 Jan 20:43:29 20:47:12 29° 70° (ENE) 20:51:00 145.826/435.025
GOMX 1 30 Jan 20:54:28 20:59:33 74° 258° (WSW) 21:05:00 467.674
DOVE 4 30 Jan 20:59:12 21:04:17 88° 250° (WSW) 21:09:38 437.250
STRAND 1 30 Jan 21:00:14 21:03:50 19° 296° (WNW) 21:07:17 437.568
SEEDS 30 Jan 21:04:25 21:08:38 58° 260° (W) 21:12:50 437.485
BRITE-PL 30 Jan 21:07:42 21:12:29 40° 265° (W) 21:17:36 437.365/2234.400
VELOX 1 30 Jan 21:07:52 21:09:47 13° 63° (ENE) 21:11:55 145.980
YUBILEINY 30 Jan 21:12:22 21:20:29 41° 288° (WNW) 21:28:34 435.215
ISS 30 Jan 21:14:14 21:17:08 30° 136° (SE) 21:20:05 145.825
UKube-1 30 Jan 21:19:21 21:23:25 42° 71° (ENE) 21:27:32 .
HUMSAT D 30 Jan 21:28:18 21:31:47 24° 69° (ENE) 21:35:20 437.325/437.525
COMPASS 1 30 Jan 21:29:00 21:32:56 36° 263° (W) 21:36:51 437.405
CUBEBUG 2 30 Jan 21:36:08 21:40:53 77° 76° (ENE) 21:45:42 437.445
ZACube-1 30 Jan 21:36:52 21:41:21 55° 74° (ENE) 21:45:54 437.345
AIST 1 30 Jan 21:37:02 21:39:28 15° 68° (ENE) 21:42:06
DELFI C3 30 Jan 21:39:42 21:43:47 82° 257° (WSW) 21:47:53 145.870
DX 1 30 Jan 21:41:48 21:46:09 78° 75° (ENE) 21:50:33 434.975-435.025
FUNcube-1 30 Jan 21:48:10 21:52:45 72° 75° (ENE) 21:57:21 145.935
CANX-2 30 Jan 21:49:52 21:52:31 15° 270° (W) 21:55:01 2200.000
AAUSAT CUBESAT 2 30 Jan 21:54:48 21:58:09 22° 267° (W) 22:01:25 437.432
HO-68 30 Jan 22:12:25 22:17:29 20° 271° (W) 22:22:15 435.675
CINEMA 3 30 Jan 22:12:26 22:16:47 29° 266° (W) 22:21:09 145.822/145.860
UWE-3 30 Jan 22:12:58 22:17:33 52° 261° (W) 22:22:10 435.000/436.395/437.385
AISAT 30 Jan 22:14:06 22:18:29 65° 74° (ENE) 22:22:56 437.250
Oscar 11 30 Jan 22:19:46 22:23:24 25° 266° (W) 22:26:59 145.826/435.025
ANTELSAT 30 Jan 22:20:09 22:23:12 19° 91° (E) 22:26:20 437.575/2403.000
ESTCUBE 1 30 Jan 22:22:39 22:26:40 34° 70° (ENE) 22:30:44 437.505/2401.250
50 SAT 30 Jan 22:24:05 22:28:12 74° 76° (ENE) 22:32:20 437.505
TIGRISAT 30 Jan 22:26:42 22:30:03 21° 92° (E) 22:33:25 435.000
QB50P2 30 Jan 22:33:23 22:35:50 15° 90° (E) 22:38:27 145.880/145.840
VELOX 1 30 Jan 22:41:29 22:45:54 66° 259° (W) 22:50:21 145.980
QB50P1 30 Jan 22:41:42 22:44:41 19° 92° (E) 22:47:46 145.935-145.965
DOVE 4 30 Jan 22:42:06 22:42:59 10° 276° (W) 22:43:29 437.250
CUBEBUG 1 30 Jan 22:44:53 22:49:07 53° 73° (ENE) 22:53:25 437.445
BUGSAT 1 30 Jan 22:45:04 22:47:34 15° 90° (E) 22:50:14 437.445
ISS 30 Jan 22:50:32 22:53:34 34° 333° (NNW) 22:56:39 145.825
TISAT 1 30 Jan 22:56:35 22:59:21 18° 66° (ENE) 23:02:15 437.305
UKube-1 30 Jan 22:56:52 22:59:50 17° 268° (W) 23:02:40 .
POLYITAN 1 30 Jan 22:57:07 23:00:48 28° 95° (E) 23:04:32 437.675
HUMSAT D 30 Jan 23:03:35 23:07:29 30° 265° (W) 23:11:19 437.325/437.525
AIST 1 30 Jan 23:13:18 23:17:30 47° 266° (W) 23:21:42
ZACube-1 30 Jan 23:15:24 23:18:08 15° 271° (W) 23:20:40 437.345
POPSAT HIP 1 30 Jan 23:15:55 23:20:03 44° 98° (E) 23:24:10 437.405
CUBEBUG 2 30 Jan 23:16:42 23:18:15 11° 274° (W) 23:19:30 437.445
DUCHIFAT 1 30 Jan 23:17:32 23:21:41 45° 98° (E) 23:25:48 145.980
UNISAT 6 30 Jan 23:19:41 23:24:10 84° 103° (ESE) 23:28:30 437.425
FUNcube-1 30 Jan 23:28:07 23:29:41 11° 273° (W) 23:31:00 145.935
NANOSAT C BR1 30 Jan 23:52:27 23:56:45 71° 285° (WNW) 00:01:01 145.865
AISAT 30 Jan 23:53:53 23:55:39 12° 272° (W) 23:57:10 437.250
ANTELSAT 30 Jan 23:56:05 00:00:15 39° 289° (WNW) 00:04:17 437.575/2403.000
SPROUT 30 Jan 23:59:22 00:03:41 85° 77° (ENE) 00:08:03 437.525
ESTCUBE 1 31 Jan 00:00:04 00:03:39 23° 267° (W) 00:07:09 437.505/2401.250
TIGRISAT 31 Jan 00:02:54 00:06:56 34° 290° (WNW) 00:10:51 435.000
QB50P2 31 Jan 00:07:56 00:12:05 46° 288° (WNW) 00:16:12 145.880/145.840
SWISSCUBE 31 Jan 00:07:57 00:11:13 19° 65° (ENE) 00:14:39 437.505
QB50P1 31 Jan 00:16:45 00:20:46 38° 289° (WNW) 00:24:44 145.935-145.965
BUGSAT 1 31 Jan 00:19:15 00:23:22 46° 287° (WNW) 00:27:27 437.445
BEESAT 31 Jan 00:22:48 00:26:36 25° 67° (ENE) 00:30:29 436.000
CUBEBUG 1 31 Jan 00:23:36 00:25:55 14° 271° (W) 00:28:02 437.445
ITUPSAT 1 31 Jan 00:27:39 00:31:35 27° 68° (ENE) 00:35:36 437.325
ISS 31 Jan 00:28:49 00:30:47 15° 353° (N) 00:32:44 145.825
TISAT 1 31 Jan 00:30:51 00:34:53 42° 262° (W) 00:38:58 437.305
POLYITAN 1 31 Jan 00:33:05 00:36:42 26° 291° (WNW) 00:40:15 437.675
POPSAT HIP 1 31 Jan 00:52:45 00:55:39 17° 294° (WNW) 00:58:24 437.405
DUCHIFAT 1 31 Jan 00:54:25 00:57:14 17° 294° (WNW) 00:59:54 145.980
UNISAT 6 31 Jan 00:59:58 01:00:20 10° 299° (WNW) 01:00:27 437.425
GONETS M04 31 Jan 01:17:55 01:26:23 58° 92° (E) 01:34:53
BEESAT 2 31 Jan 01:32:28 01:35:33 21° 113° (ESE) 01:38:47 435.950
Oscar 19 31 Jan 01:36:42 01:41:27 37° 97° (E) 01:46:13 437.125/150
AIST 2 31 Jan 01:40:23 01:40:59 10° 109° (ESE) 01:41:50 435.215
STARS 31 Jan 01:41:41 01:44:55 21° 66° (ENE) 01:48:16 437.465
M-CUBED/EXP-1 PRIME 31 Jan 01:43:58 01:45:40 13° 62° (ENE) 01:47:29 437.505
BEESAT 3 31 Jan 01:44:06 01:47:44 32° 115° (ESE) 01:51:28 437.485
SWISSCUBE 31 Jan 01:44:12 01:48:47 47° 261° (W) 01:53:24 437.505
O/OREOS (USA 219) 31 Jan 01:50:00 01:54:29 51° 64° (ENE) 01:58:59 437.305
KKS-1 31 Jan 01:51:07 01:55:14 38° 71° (ENE) 01:59:25 437.445
ITAMSAT 1 31 Jan 01:57:26 02:01:14 21° 92° (E) 02:05:12 435.822/435.867
BEESAT 31 Jan 01:59:56 02:04:19 36° 263° (W) 02:08:41 436.000
ITUPSAT 1 31 Jan 02:05:07 02:09:25 32° 264° (W) 02:13:40 437.325
ISS 31 Jan 02:05:58 02:08:14 17° 13° (NNE) 02:10:31 145.825
AUBIESAT-1 31 Jan 02:14:06 02:17:15 24° 66° (ENE) 02:20:16 437.475
Gurwin Techsat 1B 31 Jan 03:04:18 03:09:34 61° 100° (E) 03:14:51 435.225
BEESAT 2 31 Jan 03:09:43 03:13:35 37° 309° (NW) 03:17:30 435.950
RS-15 31 Jan 03:09:54 03:15:54 18° 101° (E) 03:22:41 29.354- 29.394
AIST 2 31 Jan 03:14:49 03:19:03 77° 303° (WNW) 03:23:23 435.215
GONETS M04 31 Jan 03:16:07 03:23:46 32° 292° (WNW) 03:31:14
Oscar 19 31 Jan 03:16:22 03:20:40 27° 293° (WNW) 03:24:52 437.125/150
M-CUBED/EXP-1 PRIME 31 Jan 03:16:31 03:20:26 50° 254° (WSW) 03:24:03 437.505
STARS 31 Jan 03:16:59 03:21:10 39° 262° (W) 03:25:22 437.465
DANDE 31 Jan 03:18:11 03:24:35 26° 85° (E) 03:31:26 436.750
BEESAT 3 31 Jan 03:22:24 03:25:55 26° 313° (NW) 03:29:26 437.485
KKS-1 31 Jan 03:28:38 03:32:03 20° 267° (W) 03:35:22 437.445
O/OREOS (USA 219) 31 Jan 03:30:41 03:33:32 16° 259° (W) 03:36:12 437.305
HORYU 2 31 Jan 03:32:50 03:36:53 35° 97° (E) 03:40:57 437.375
ITAMSAT 1 31 Jan 03:36:01 03:41:04 49° 289° (WNW) 03:46:04 435.822/435.867
CUSAT 1 31 Jan 03:36:01 03:43:26 39° 90° (E) 03:51:03 437.405
ISS 31 Jan 03:42:00 03:45:16 57° 32° (NNE) 03:48:31 145.825
MOZHAYETS 4 31 Jan 03:44:06 03:47:45 24° 68° (ENE) 03:51:29
JAS-2 31 Jan 03:45:39 03:46:51 11° 87° (E) 03:48:35 435.910
AUBIESAT-1 31 Jan 03:48:55 03:52:10 23° 259° (WSW) 03:55:10 437.475
PCSat 31 Jan 04:06:09 04:11:22 52° 114° (ESE) 04:16:40 145.827
AO-7 31 Jan 04:18:04 04:25:58 46° 99° (E) 04:33:52 29.400- 29.500
Gurwin Techsat 1B 31 Jan 04:45:29 04:49:08 18° 297° (WNW) 04:52:36 435.225
AIST 2 31 Jan 04:56:44 04:58:29 12° 324° (NW) 05:00:06 435.215
PRISM 31 Jan 04:56:57 04:59:02 14° 65° (ENE) 05:01:18 437.425
DANDE 31 Jan 04:59:02 05:07:24 75° 282° (WNW) 05:16:03 436.750
STRAND 1 31 Jan 05:01:23 05:02:30 11° 59° (ENE) 05:03:55 437.568
HORYU 2 31 Jan 05:09:55 05:13:24 22° 293° (WNW) 05:16:47 437.375
RS-15 31 Jan 05:15:49 05:26:43 80° 119° (ESE) 05:37:44 29.354- 29.394
CUSAT 1 31 Jan 05:18:17 05:26:22 51° 287° (WNW) 05:34:23 437.405
ISS 31 Jan 05:19:16 05:21:28 16° 228° (SW) 05:23:36 145.825
MOZHAYETS 4 31 Jan 05:20:42 05:24:53 33° 264° (W) 05:29:01
YUBILEINY 31 Jan 05:25:57 05:32:07 22° 62° (ENE) 05:38:41 435.215
JAS-2 31 Jan 05:26:59 05:32:46 82° 103° (ESE) 05:39:18 435.910
CUBESAT XI-V 31 Jan 05:41:43 05:45:43 31° 70° (ENE) 05:49:49 437.345
PCSat 31 Jan 05:50:37 05:55:08 25° 313° (NW) 05:59:35 145.827
Cubesat XI-IV 31 Jan 05:55:08 05:59:02 21° 91° (E) 06:03:06 437.490
AO-7 31 Jan 06:11:02 06:18:45 42° 298° (WNW) 06:26:19 29.400- 29.500
CUTE-I 31 Jan 06:13:59 06:18:40 30° 95° (E) 06:23:25 437.470
PRISM 31 Jan 06:30:13 06:34:12 50° 260° (W) 06:38:13 437.425
STRAND 1 31 Jan 06:35:53 06:40:59 82° 73° (ENE) 06:46:08 437.568
DANDE 31 Jan 06:46:40 06:52:26 18° 302° (WNW) 06:57:45 436.750
CUSAT 1 31 Jan 07:09:02 07:11:33 11° 308° (NW) 07:13:24 437.405
JAS-2 31 Jan 07:14:00 07:17:28 16° 297° (WNW) 07:20:50 435.910
CUBESAT XI-V 31 Jan 07:19:20 07:23:13 26° 266° (W) 07:27:02 437.345
YUBILEINY 31 Jan 07:21:24 07:30:14 83° 263° (W) 07:39:03 435.215
RS-15 31 Jan 07:30:34 07:40:24 35° 326° (NW) 07:50:15 29.354- 29.394
Cubesat XI-IV 31 Jan 07:34:17 07:39:29 51° 289° (WNW) 07:44:40 437.490
PHONESAT 2.4 31 Jan 07:45:47 07:47:33 13° 148° (SSE) 07:49:25 2401.200-2431.200
HO-68 31 Jan 07:52:23 07:55:05 13° 85° (E) 07:58:20 435.675
CUTE-I 31 Jan 07:53:55 07:58:48 35° 292° (WNW) 08:03:36 437.470
VERMONT LUNAR 31 Jan 08:10:55 08:13:58 29° 157° (SSE) 08:17:03 437.305
STRAND 1 31 Jan 08:19:13 08:20:57 11° 273° (W) 08:22:20 437.568
CUTE 1.7 + AOD 2 31 Jan 08:23:05 08:25:01 13° 89° (E) 08:27:10 437.475
SEEDS 31 Jan 08:49:40 08:52:56 22° 93° (E) 08:56:16 437.485
GOMX 1 31 Jan 08:57:00 09:01:59 37° 95° (E) 09:06:44 467.674
DOVE 4 31 Jan 08:59:28 09:03:49 28° 92° (E) 09:08:03 437.250
SO-50 31 Jan 09:11:36 09:14:17 16° 110° (ESE) 09:17:13 436.795
BRITE-PL 31 Jan 09:12:14 09:17:55 74° 101° (E) 09:23:19 437.365/2234.400
COMPASS 1 31 Jan 09:12:43 09:16:30 33° 96° (E) 09:20:17 437.405
ANTELSAT 31 Jan 09:19:27 09:22:45 20° 66° (ENE) 09:26:10 437.575/2403.000
YUBILEINY 31 Jan 09:20:51 09:25:52 16° 282° (WNW) 09:30:21 435.215
DELFI C3 31 Jan 09:21:33 09:23:32 14° 90° (E) 09:25:42 145.870
PHONESAT 2.4 31 Jan 09:22:10 09:25:37 45° 162° (SSE) 09:29:06 2401.200-2431.200
TIGRISAT 31 Jan 09:25:37 09:29:09 22° 67° (ENE) 09:32:47 435.000
QB50P2 31 Jan 09:27:39 09:29:31 13° 64° (ENE) 09:31:35 145.880/145.840
CUBEBUG 2 31 Jan 09:29:09 09:31:53 16° 89° (E) 09:34:44 437.445
ZACube-1 31 Jan 09:29:18 09:29:32 10° 86° (E) 09:30:04 437.345
DX 1 31 Jan 09:31:58 09:34:01 13° 90° (E) 09:36:18 434.975-435.025
CANX-2 31 Jan 09:33:17 09:37:32 88° 282° (WNW) 09:41:45 2200.000
QB50P1 31 Jan 09:35:33 09:38:00 16° 65° (ENE) 09:40:38 145.935-145.965
HO-68 31 Jan 09:36:54 09:44:06 79° 105° (ESE) 09:51:17 435.675
BUGSAT 1 31 Jan 09:37:00 09:38:21 12° 63° (ENE) 09:39:54 437.445
AAUSAT CUBESAT 2 31 Jan 09:37:07 09:41:13 56° 100° (E) 09:45:17 437.432
FUNcube-1 31 Jan 09:38:52 09:40:56 13° 88° (E) 09:43:12 145.935
VERMONT LUNAR 31 Jan 09:48:22 09:51:50 72° 172° (S) 09:55:20 437.305
RS-15 31 Jan 09:49:33 09:57:20 21° 360° (N) 10:05:18 29.354- 29.394
POLYITAN 1 31 Jan 09:50:51 09:54:11 23° 68° (ENE) 09:57:37 437.675
BEESAT 2 31 Jan 09:51:58 09:54:47 18° 42° (NE) 09:57:40 435.950
CUTE 1.7 + AOD 2 31 Jan 09:57:14 10:01:21 51° 286° (WNW) 10:05:26 437.475
AIST 2 31 Jan 10:00:19 10:01:35 11° 35° (NE) 10:03:00 435.215
BEESAT 3 31 Jan 10:03:28 10:06:51 24° 46° (NE) 10:10:15 437.485
UWE-3 31 Jan 10:03:37 10:07:36 31° 95° (E) 10:11:30 435.000/436.395/437.385
Oscar 11 31 Jan 10:06:15 10:10:30 57° 100° (E) 10:14:44 145.826/435.025
AISAT 31 Jan 10:07:06 10:08:57 13° 89° (E) 10:11:03 437.250
CINEMA 3 31 Jan 10:07:08 10:11:59 73° 101° (E) 10:16:33 145.822/145.860
POPSAT HIP 1 31 Jan 10:09:05 10:12:55 34° 71° (ENE) 10:16:51 437.405
DUCHIFAT 1 31 Jan 10:10:23 10:14:15 35° 71° (ENE) 10:18:10 145.980
UNISAT 6 31 Jan 10:18:17 10:23:00 76° 75° (ENE) 10:27:42 437.425
SEEDS 31 Jan 10:25:07 10:28:50 30° 289° (WNW) 10:32:26 437.485
VELOX 1 31 Jan 10:32:47 10:36:22 23° 94° (E) 10:40:01 145.980
GOMX 1 31 Jan 10:35:19 10:39:57 29° 293° (WNW) 10:44:19 467.674
DOVE 4 31 Jan 10:36:56 10:41:40 35° 291° (WNW) 10:46:06 437.250
CUBEBUG 1 31 Jan 10:37:19 10:37:25 10° 87° (E) 10:37:49 437.445
UKube-1 31 Jan 10:42:47 10:47:10 78° 101° (E) 10:51:32 .
NANOSAT C BR1 31 Jan 10:45:02 10:49:18 86° 77° (ENE) 10:53:38 145.865
HUMSAT D 31 Jan 10:47:45 10:51:47 42° 98° (E) 10:55:45 437.325/437.525
COMPASS 1 31 Jan 10:48:55 10:52:03 20° 292° (WNW) 10:55:05 437.405
SO-50 31 Jan 10:49:53 10:54:24 59° 307° (NW) 10:59:06 436.795
BRITE-PL 31 Jan 10:52:09 10:55:48 17° 298° (WNW) 10:59:08 437.365/2234.400
ANTELSAT 31 Jan 10:54:43 10:59:16 46° 262° (W) 11:03:47 437.575/2403.000
DELFI C3 31 Jan 10:55:13 10:59:06 45° 287° (WNW) 11:02:58 145.870
PHONESAT 2.4 31 Jan 11:00:27 11:04:04 79° 181° (S) 11:07:42 2401.200-2431.200
QB50P2 31 Jan 11:00:45 11:04:59 62° 259° (W) 11:09:17 145.880/145.840
TIGRISAT 31 Jan 11:01:14 11:05:41 40° 263° (W) 11:10:06 435.000
ZACube-1 31 Jan 11:02:09 11:06:34 70° 285° (WNW) 11:10:50 437.345
CUBEBUG 2 31 Jan 11:04:34 11:08:58 47° 287° (WNW) 11:13:10 437.445
DX 1 31 Jan 11:06:23 11:10:42 56° 287° (WNW) 11:15:00 434.975-435.025
BUGSAT 1 31 Jan 11:09:17 11:13:21 65° 259° (W) 11:17:31 437.445
QB50P1 31 Jan 11:09:23 11:13:33 50° 261° (W) 11:17:45 145.935-145.965
FUNcube-1 31 Jan 11:13:26 11:17:45 53° 287° (WNW) 11:21:55 145.935
AAUSAT CUBESAT 2 31 Jan 11:14:29 11:16:29 13° 295° (WNW) 11:18:17 437.432
